Location: Tierra del Sol
(32.6128°N, 116.3319°W)
Time: 05:56:24
(UTC-08:00)

N. Korean satellite - Pass Details

Date: 10 October 2017
Orbit: 461 x 513 km, 97.2° (Epoch: 14 December)

Event Time Altitude Azimuth Distance (km) Brightness Sun altitude
Rises 19:31:30 0° 193° (SSW) 2,572 10.4 -16.3°
Reaches altitude 10° 19:33:51 10° 207° (SSW) 1,684 9.6 -16.8°
Maximum altitude 19:36:51 24° 263° (W) 1,035 9.1 -17.4°
Drops below altitude 10° 19:39:51 10° 320° (NW) 1,668 9.9 -18.0°
Sets 19:42:10 0° 334° (NNW) 2,542 10.6 -18.5°
